TimeCST,TemperatureF,Dew PointF,Humidity,Sea Level PressureIn,VisibilityMPH,Wind Direction,Wind SpeedMPH,Gust SpeedMPH,PrecipitationIn,Events,Conditions,WindDirDegrees,DateUTC
12:15 AM,35.6,21.2,56,30.02,10.0,SSE,5.8,-,N/A,,Clear,150,2014-03-07 06:15:00
12:35 AM,37.4,21.2,52,30.02,10.0,SSE,5.8,-,N/A,,Clear,150,2014-03-07 06:35:00
12:55 AM,35.6,21.2,56,30.02,10.0,SE,5.8,-,N/A,,Clear,140,2014-03-07 06:55:00
1:15 AM,35.6,21.2,56,30.02,10.0,SSE,5.8,-,N/A,,Clear,150,2014-03-07 07:15:00
1:35 AM,33.8,21.2,60,30.02,10.0,SSE,6.9,-,N/A,,Clear,150,2014-03-07 07:35:00
1:55 AM,35.6,21.2,56,30.02,10.0,SSE,5.8,-,N/A,,Clear,160,2014-03-07 07:55:00
2:15 AM,35.6,21.2,56,30.00,10.0,SSE,6.9,-,N/A,,Clear,160,2014-03-07 08:15:00
2:35 AM,32.0,21.2,64,29.99,10.0,SE,5.8,-,N/A,,Clear,140,2014-03-07 08:35:00
2:55 AM,32.0,21.2,64,29.99,10.0,SSE,4.6,-,N/A,,Clear,150,2014-03-07 08:55:00
3:15 AM,32.0,21.2,64,29.98,10.0,SSE,5.8,-,N/A,,Clear,160,2014-03-07 09:15:00
3:35 AM,33.8,23.0,65,29.97,10.0,SSE,5.8,-,N/A,,Clear,150,2014-03-07 09:35:00
3:55 AM,32.0,21.2,64,29.97,10.0,SE,8.1,-,N/A,,Clear,140,2014-03-07 09:55:00
4:15 AM,32.0,23.0,69,29.98,10.0,SE,6.9,-,N/A,,Clear,140,2014-03-07 10:15:00
4:35 AM,30.2,21.2,69,29.97,10.0,SE,5.8,-,N/A,,Clear,130,2014-03-07 10:35:00
4:55 AM,30.2,21.2,69,29.97,10.0,SE,8.1,-,N/A,,Clear,140,2014-03-07 10:55:00
5:15 AM,30.2,21.2,69,29.97,10.0,SE,6.9,-,N/A,,Clear,140,2014-03-07 11:15:00
5:35 AM,30.2,21.2,69,29.96,10.0,SE,6.9,-,N/A,,Clear,130,2014-03-07 11:35:00
5:55 AM,32.0,21.2,64,29.97,10.0,SE,8.1,-,N/A,,Clear,140,2014-03-07 11:55:00
6:15 AM,32.0,23.0,69,29.97,10.0,SSE,6.9,-,N/A,,Clear,150,2014-03-07 12:15:00
6:35 AM,32.0,23.0,69,29.97,10.0,SSE,6.9,-,N/A,,Clear,150,2014-03-07 12:35:00
6:55 AM,33.8,23.0,65,29.98,10.0,SSE,6.9,-,N/A,,Clear,160,2014-03-07 12:55:00
7:15 AM,33.8,23.0,65,29.99,10.0,South,5.8,-,N/A,,Clear,170,2014-03-07 13:15:00
7:35 AM,35.6,23.0,60,29.99,10.0,SSE,6.9,-,N/A,,Clear,150,2014-03-07 13:35:00
7:55 AM,37.4,24.8,60,29.99,10.0,SSE,6.9,-,N/A,,Clear,150,2014-03-07 13:55:00
8:15 AM,41.0,26.6,57,29.99,10.0,SSE,8.1,-,N/A,,Clear,160,2014-03-07 14:15:00
8:35 AM,42.8,26.6,53,29.99,10.0,SSE,8.1,-,N/A,,Clear,160,2014-03-07 14:35:00
8:55 AM,44.6,26.6,49,29.99,10.0,SSE,9.2,-,N/A,,Clear,160,2014-03-07 14:55:00
9:15 AM,46.4,28.4,50,29.99,10.0,SSE,9.2,-,N/A,,Clear,160,2014-03-07 15:15:00
9:35 AM,50.0,28.4,43,29.97,10.0,SSE,9.2,-,N/A,,Clear,160,2014-03-07 15:35:00
9:55 AM,51.8,30.2,44,29.97,10.0,South,8.1,-,N/A,,Clear,170,2014-03-07 15:55:00
10:15 AM,53.6,30.2,41,29.96,10.0,South,9.2,-,N/A,,Clear,180,2014-03-07 16:15:00
10:35 AM,53.6,30.2,41,29.96,10.0,South,8.1,-,N/A,,Clear,170,2014-03-07 16:35:00
10:55 AM,53.6,30.2,41,29.96,10.0,South,4.6,-,N/A,,Clear,170,2014-03-07 16:55:00
11:15 AM,55.4,30.2,38,29.95,10.0,South,6.9,-,N/A,,Clear,180,2014-03-07 17:15:00
11:35 AM,57.2,30.2,36,29.95,10.0,SSW,10.4,-,N/A,,Clear,200,2014-03-07 17:35:00
11:55 AM,59.0,32.0,36,29.94,10.0,SSW,9.2,-,N/A,,Clear,200,2014-03-07 17:55:00
12:15 PM,60.8,30.2,31,29.92,10.0,SSW,6.9,-,N/A,,Clear,200,2014-03-07 18:15:00
12:35 PM,60.8,30.2,31,29.92,10.0,South,8.1,-,N/A,,Clear,180,2014-03-07 18:35:00
12:55 PM,62.6,30.2,30,29.90,10.0,South,8.1,-,N/A,,Clear,170,2014-03-07 18:55:00
1:15 PM,62.6,30.2,30,29.89,10.0,SE,9.2,-,N/A,,Clear,140,2014-03-07 19:15:00
1:35 PM,62.6,30.2,30,29.89,10.0,South,10.4,-,N/A,,Clear,180,2014-03-07 19:35:00
1:55 PM,62.6,28.4,27,29.88,10.0,SSE,10.4,18.4,N/A,,Clear,150,2014-03-07 19:55:00
2:15 PM,64.4,30.2,28,29.87,10.0,SSE,9.2,-,N/A,,Clear,160,2014-03-07 20:15:00
2:35 PM,64.4,30.2,28,29.87,10.0,SE,9.2,-,N/A,,Clear,130,2014-03-07 20:35:00
2:55 PM,64.4,30.2,28,29.87,10.0,South,8.1,-,N/A,,Clear,170,2014-03-07 20:55:00
3:15 PM,64.4,28.4,26,29.87,10.0,SSE,13.8,17.3,N/A,,Clear,160,2014-03-07 21:15:00
3:35 PM,64.4,28.4,26,29.86,10.0,SE,12.7,20.7,N/A,,Clear,140,2014-03-07 21:35:00
3:55 PM,62.6,30.2,30,29.87,10.0,SSE,9.2,-,N/A,,Clear,150,2014-03-07 21:55:00
4:15 PM,60.8,30.2,31,29.86,10.0,SE,12.7,-,N/A,,Clear,140,2014-03-07 22:15:00
4:35 PM,60.8,28.4,29,29.86,10.0,SSE,8.1,-,N/A,,Clear,150,2014-03-07 22:35:00
4:55 PM,60.8,28.4,29,29.87,10.0,SSE,9.2,-,N/A,,Clear,160,2014-03-07 22:55:00
5:15 PM,59.0,28.4,31,29.87,10.0,SSE,6.9,-,N/A,,Clear,150,2014-03-07 23:15:00
5:35 PM,59.0,30.2,34,29.88,10.0,SSE,6.9,-,N/A,,Clear,160,2014-03-07 23:35:00
5:55 PM,57.2,30.2,36,29.88,10.0,SSE,6.9,-,N/A,,Clear,160,2014-03-07 23:55:00
6:15 PM,55.4,30.2,38,29.89,10.0,South,6.9,-,N/A,,Clear,170,2014-03-08 00:15:00
6:35 PM,53.6,30.2,41,29.89,10.0,South,5.8,-,N/A,,Clear,170,2014-03-08 00:35:00
6:55 PM,53.6,30.2,41,29.90,10.0,SSE,6.9,-,N/A,,Clear,160,2014-03-08 00:55:00
7:15 PM,53.6,30.2,41,29.90,10.0,SSE,10.4,-,N/A,,Clear,150,2014-03-08 01:15:00
7:35 PM,51.8,30.2,44,29.90,10.0,SSE,8.1,-,N/A,,Clear,150,2014-03-08 01:35:00
7:55 PM,51.8,30.2,44,29.90,10.0,SE,6.9,-,N/A,,Clear,130,2014-03-08 01:55:00
8:15 PM,50.0,30.2,47,29.91,10.0,SE,6.9,-,N/A,,Clear,140,2014-03-08 02:15:00
8:35 PM,51.8,30.2,44,29.91,10.0,SE,9.2,-,N/A,,Clear,140,2014-03-08 02:35:00
8:55 PM,50.0,30.2,47,29.91,10.0,SE,6.9,-,N/A,,Clear,140,2014-03-08 02:55:00
9:15 PM,50.0,30.2,47,29.93,10.0,South,5.8,-,N/A,,Scattered Clouds,170,2014-03-08 03:15:00
9:35 PM,50.0,30.2,47,29.95,10.0,South,5.8,-,N/A,,Overcast,170,2014-03-08 03:35:00
9:55 PM,50.0,30.2,47,29.95,10.0,SSE,4.6,-,N/A,,Overcast,160,2014-03-08 03:55:00
10:15 PM,50.0,30.2,47,29.95,10.0,South,4.6,-,N/A,,Overcast,180,2014-03-08 04:15:00
10:35 PM,50.0,30.2,47,29.95,10.0,South,5.8,-,N/A,,Scattered Clouds,170,2014-03-08 04:35:00
10:55 PM,48.2,30.2,50,29.95,10.0,SSE,5.8,-,N/A,,Clear,160,2014-03-08 04:55:00
11:15 PM,46.4,30.2,53,29.95,10.0,SSE,6.9,-,N/A,,Clear,160,2014-03-08 05:15:00
11:35 PM,46.4,30.2,53,29.95,10.0,SSE,6.9,-,N/A,,Clear,160,2014-03-08 05:35:00
11:55 PM,46.4,30.2,53,29.95,10.0,SSE,5.8,-,N/A,,Clear,160,2014-03-08 05:55:00